#timestamp,LO_Frequency,Hit,StdDev 
1510981215.8,286047000.2,N
1510981235.7,286046998.5,N
1510981255.5,286046998.5,N
1510981275.4,286047000.8,N
1510981295.2,286047002.7,N
1510981315.0,286047000.3,N
1510981315.9,286047000.3,N
1510981335.8,286047001.1,N
1510981355.6,286046998.1,N
1510981375.5,286047000.4,N
1510981395.3,286047000.5,N
1510981415.1,286046997.0,N
1510981435.9,286046999.4,N
1510981455.7,286046999.3,N
1510981475.6,286046997.0,N
1510981495.4,286046998.0,N
1510981515.2,286046994.9,Y
1510981535.1,286046996.8,P
1510981536.0,286046996.8,N
1510981555.8,286046998.6,N
1510981575.7,286046999.0,N
1510981595.5,286046998.6,N
1510981615.3,286046999.2,N
1510981665.2,286046996.6,E
1510981675.1,286046998.5,N
1510981695.9,286047002.5,P
1510981715.7,286047002.2,N
1510981735.5,286047001.5,N
1510981755.4,286047001.4,N
1510981775.2,286047011.9,Y
1510981795.1,286047000.1,P
1510981796.0,286047000.1,N
1510981815.8,286047000.3,N
1510981835.6,286047000.2,N
1510981855.5,286047002.1,Y
1510981875.3,286047001.5,P
1510981895.2,286047002.7,P
1510981915.9,286046999.7,N
1510981935.7,286047003.1,N
1510981955.6,286047003.6,N
1510981975.4,286047002.9,N
1510981995.2,286047004.1,N
1510982015.1,286047004.4,N
1510982016.0,286047004.4,N
1510982035.8,286047003.7,N
1510982055.7,286047003.9,N
1510982075.5,286047000.2,N
1510982095.3,286047002.4,N
1510982115.2,286047000.3,N
1510982135.0,286047002.2,N
1510982135.9,286047002.2,N
1510982155.8,286047002.6,N
1510982175.6,286047002.3,N
1510982195.4,286047001.7,N
1510982215.3,286047001.9,N
1510982235.1,286047002.6,N
1510982255.8,286047000.1,N
1510982275.7,286047000.5,N
1510982295.5,286047001.2,N
1510982315.4,286047000.9,N
1510982335.2,286047001.2,N
1510982355.0,286047001.0,N
1510982355.9,286047001.0,N
1510982375.8,286047000.0,N
1510982395.6,286047001.1,N
1510982415.4,286047000.6,N
1510982435.3,286046999.7,N
1510982455.1,286047002.6,N
1510982475.9,286047002.6,N
1510982495.7,286047003.7,N
1510982515.5,286047003.9,N
1510982535.4,286047001.9,N
1510982555.2,286046999.7,N
1510982575.1,286047002.1,N
1510982576.0,286047002.1,N
1510982595.8,286047006.0,Y
1510982615.6,286047000.4,P
1510982635.5,286046999.8,N
1510982655.3,286047000.1,N
1510982675.2,286047001.8,N
1510982695.9,286047001.9,N
1510982715.7,286047002.8,Y
1510982735.6,286047000.3,P
1510982755.4,286047001.1,P
1510982775.2,286047000.7,N
1510982795.1,286047000.3,N
1510982796.0,286047000.3,N
1510982815.8,286047000.0,N
1510982835.7,286047002.2,Y
1510982855.5,286047001.8,P
1510982875.3,286047000.2,N
1510982895.2,286047001.0,N
1510982915.0,286047001.7,N
1510982915.9,286047001.7,N
1510982935.8,286047001.5,N
1510982955.6,286047002.2,Y
1510982975.4,286047000.7,P
1510982995.3,286047000.2,N
1510983015.1,286047000.8,N
1510983035.8,286046999.4,N
1510983055.7,286046999.1,N
1510983075.5,286046996.6,Y
1510983095.4,286046997.1,P
1510983115.2,286046997.8,N
1510983135.0,286046998.4,N
1510983135.9,286046998.4,N
1510983155.8,286046998.9,N
1510983175.6,286046997.8,N
1510983195.5,286046997.8,N
1510983215.3,286046995.3,Y
1510983235.1,286046999.5,P
1510983255.9,286046996.9,P
1510983275.7,286046997.3,N
1510983295.5,286046997.4,N
1510983315.4,286046996.7,Y
1510983335.2,286046998.1,P
1510983355.1,286046999.0,P
1510983356.0,286046999.0,N
1510983375.8,286046998.9,N
1510983425.7,286046998.3,E
1510983435.6,286047001.0,N
1510983455.4,286047000.5,P
1510983475.3,286047001.0,P
1510983495.1,286047002.4,Y
1510983515.9,286046998.4,P
1510983535.7,286047000.8,N
1510983555.5,286047001.2,N
1510983575.4,286047000.7,N
1510983595.2,286046998.4,N
1510983615.0,286046996.7,N
1510983615.9,286046996.7,N
1510983635.8,286046997.0,N
1510983655.6,286046997.3,N
1510983675.5,286046996.8,N
1510983695.3,286046999.4,N
1510983715.1,286046996.7,N
1510983735.9,286046997.8,N
1510983755.7,286046997.2,N
1510983775.6,286046997.3,N
1510983795.4,286046997.1,N
1510983815.2,286046997.9,N
1510983835.1,286046996.5,N
1510983836.0,286046996.5,N
1510983855.8,286046997.1,N
1510983875.6,286046999.6,N
1510983895.5,286046996.5,N
1510983915.3,286046997.0,N
1510983935.2,286046998.0,N
1510983955.9,286046996.9,N
1510983975.7,286046995.4,Y
1510983995.6,286046998.8,P
1510984015.4,286046999.6,N
1510984035.3,286046999.2,N
1510984055.1,286047001.1,N
1510984056.0,286047001.1,N
1510984075.8,286046999.0,N
1510984095.7,286046998.1,N
1510984115.5,286046996.8,N
1510984135.4,286046996.5,N
1510984155.2,286046998.9,N
1510984175.0,286046998.5,N
1510984175.9,286046998.5,N
1510984195.8,286046999.1,N
1510984215.6,286046998.0,N
1510984235.5,286046999.5,N
1510984255.3,286046997.7,N
1510984275.1,286046997.8,N
1510984295.9,286046997.3,N
1510984315.7,286046997.2,N
1510984335.5,286046997.6,N
1510984355.4,286046996.5,N
1510984375.2,286046997.2,N
1510984395.1,286046997.3,N
1510984396.0,286046997.3,N
1510984415.8,286046995.0,Y
1510984435.6,286046998.4,P
1510984455.5,286047001.1,P
1510984475.3,286046998.6,N
1510984495.1,286046998.5,N
1510984515.9,286047000.8,N
1510984535.7,286046997.7,N
1510984555.6,286046997.9,N
1510984575.4,286046999.1,N
1510984595.2,286046999.4,N
1510984615.1,286046998.8,N
1510984616.0,286046998.8,N
1510984635.8,286046998.5,N
1510984655.6,286047000.8,N
1510984675.5,286046999.4,N
1510984695.3,286046998.6,N
1510984715.2,286046998.8,N
1510984735.9,286046998.9,N
1510984755.7,286046999.0,N
1510984775.6,286046999.1,N
1510984795.4,286046999.0,N
